Location: Borger
(52.9222°N, 6.7926°E)
Time: 21:34:51
(UTC+00:00)

Meteor 2-10 Rocket - Pass Details

Date: 15 May 2026
Orbit: 733 x 881 km, 81.2° (Epoch: 10 June)

Event Time Altitude Azimuth Distance (km) Brightness Sun altitude
Rises 23:21:01 0° 348° (NNW) 3,344 8.4 -18.0°
Reaches altitude 10° 23:23:25 10° 352° (N) 2,431 7.4 -18.0°
Maximum altitude 23:28:54 62° 73° (ENE) 952 4.0 -18.0°
Enters shadow 23:32:15 25° 147° (SSE) 1,681 4.8 -18.0°
